When you browse on this site, cookies collect data to enhance your experience and personalize the content and advertising you see.
Visit our Privacy Policy to learn more. By continuing to use the site, you agree to this use of cookies and data.
  • en Suisse
  • Liste des pays
  • À 7 jours
  • Température de l'eau
  • Carte satellitaire
  • Carte météo
  • Widgets météo
  • user-avatar
    Se connecter

    Météo par heure à Saurimo

    Ce jour, 24 Mai, Vendredi

    Heure Température Précipitation Vent Pression Humidité
    00:00 +19°C° 0 mm 0 m/s 671 mmHg 76%
    01:00 +21°C° 0 mm 1 m/s 671 mmHg 73%
    02:00 +20°C° 0 mm 1 m/s 671 mmHg 74%
    03:00 +20°C° 0 mm 1 m/s 670 mmHg 75%
    04:00 +20°C° 0 mm 1 m/s 670 mmHg 75%
    05:00 +20°C° 0 mm 1 m/s 671 mmHg 72%
    06:00 +21°C° 0 mm 1 m/s 671 mmHg 69%
    07:00 +21°C° 0 mm 2 m/s 672 mmHg 65%
    08:00 +25°C° 0 mm 3 m/s 672 mmHg 55%
    09:00 +28°C° 0 mm 3 m/s 673 mmHg 46%
    10:00 +32°C° 0 mm 4 m/s 673 mmHg 36%
    11:00 +33°C° 0 mm 4 m/s 673 mmHg 34%
    12:00 +34°C° 0 mm 4 m/s 672 mmHg 32%
    13:00 +35°C° 0 mm 4 m/s 672 mmHg 28%
    14:00 +34°C° 0 mm 4 m/s 672 mmHg 28%
    15:00 +34°C° 0 mm 3 m/s 672 mmHg 28%
    16:00 +33°C° 0 mm 3 m/s 671 mmHg 28%
    17:00 +30°C° 0 mm 3 m/s 671 mmHg 33%
    18:00 +27°C° 0 mm 2 m/s 671 mmHg 38%
    19:00 +25°C° 0 mm 2 m/s 671 mmHg 43%
    20:00 +24°C° 0 mm 2 m/s 671 mmHg 45%
    21:00 +23°C° 0 mm 2 m/s 671 mmHg 46%
    22:00 +21°C° 0 mm 2 m/s 671 mmHg 47%
    23:00 +21°C° 0 mm 2 m/s 671 mmHg 48%

    Demain, 25 Mai, Samedi

    Heure Température Précipitation Vent Pression Humidité
    00:00 +20°C° 0 mm 2 m/s 671 mmHg 48%
    01:00 +20°C° 0 mm 2 m/s 671 mmHg 48%
    02:00 +20°C° 0 mm 2 m/s 671 mmHg 48%
    03:00 +19°C° 0 mm 2 m/s 671 mmHg 48%
    04:00 +19°C° 0 mm 2 m/s 670 mmHg 48%
    05:00 +19°C° 0 mm 3 m/s 671 mmHg 47%
    06:00 +20°C° 0 mm 3 m/s 671 mmHg 46%
    07:00 +20°C° 0 mm 3 m/s 672 mmHg 45%
    08:00 +23°C° 0 mm 4 m/s 672 mmHg 39%
    09:00 +27°C° 0 mm 4 m/s 673 mmHg 34%
    10:00 +29°C° 0 mm 4 m/s 674 mmHg 28%
    11:00 +30°C° 0 mm 4 m/s 673 mmHg 26%
    12:00 +33°C° 0 mm 4 m/s 673 mmHg 24%
    13:00 +34°C° 0 mm 4 m/s 672 mmHg 22%
    14:00 +33°C° 0 mm 4 m/s 672 mmHg 23%
    15:00 +33°C° 0 mm 3 m/s 671 mmHg 24%
    16:00 +31°C° 0 mm 3 m/s 671 mmHg 24%
    17:00 +29°C° 0 mm 3 m/s 671 mmHg 30%
    18:00 +26°C° 0 mm 2 m/s 670 mmHg 35%
    19:00 +23°C° 0 mm 2 m/s 670 mmHg 40%
    20:00 +23°C° 0 mm 2 m/s 671 mmHg 41%
    21:00 +21°C° 0 mm 2 m/s 671 mmHg 42%
    22:00 +20°C° 0 mm 2 m/s 671 mmHg 44%
    23:00 +20°C° 0 mm 2 m/s 671 mmHg 44%

    Après-demain, 26 Mai, Dimanche

    Heure Température Précipitation Vent Pression Humidité
    00:00 +19°C° 0 mm 2 m/s 671 mmHg 44%
    01:00 +19°C° 0 mm 2 m/s 671 mmHg 44%
    02:00 +19°C° 0 mm 2 m/s 670 mmHg 45%
    03:00 +18°C° 0 mm 2 m/s 670 mmHg 45%
    04:00 +18°C° 0 mm 3 m/s 670 mmHg 46%
    05:00 +19°C° 0 mm 3 m/s 670 mmHg 46%
    06:00 +19°C° 0 mm 3 m/s 671 mmHg 45%
    07:00 +19°C° 0 mm 4 m/s 671 mmHg 45%
    08:00 +22°C° 0 mm 4 m/s 672 mmHg 43%
    09:00 +26°C° 0 mm 4 m/s 673 mmHg 40%
    10:00 +28°C° 0 mm 4 m/s 673 mmHg 38%
    11:00 +30°C° 0 mm 3 m/s 673 mmHg 36%
    12:00 +31°C° 0 mm 3 m/s 672 mmHg 33%
    13:00 +33°C° 0 mm 3 m/s 672 mmHg 31%
    14:00 +32°C° 0 mm 2 m/s 671 mmHg 31%
    15:00 +32°C° 0 mm 2 m/s 670 mmHg 32%
    16:00 +31°C° 0 mm 2 m/s 670 mmHg 32%
    17:00 +29°C° 0 mm 2 m/s 670 mmHg 39%
    18:00 +26°C° 0 mm 2 m/s 670 mmHg 45%
    19:00 +24°C° 0 mm 2 m/s 670 mmHg 51%
    20:00 +23°C° 0 mm 2 m/s 670 mmHg 52%
    21:00 +23°C° 0 mm 2 m/s 670 mmHg 52%
    22:00 +21°C° 0 mm 2 m/s 671 mmHg 53%
    23:00 +21°C° 0 mm 2 m/s 670 mmHg 52%

    27 Mai, Lundi

    Heure Température Précipitation Vent Pression Humidité
    00:00 +20°C° 0 mm 2 m/s 670 mmHg 52%
    01:00 +20°C° 0 mm 2 m/s 670 mmHg 51%
    02:00 +20°C° 0 mm 3 m/s 670 mmHg 49%
    03:00 +20°C° 0 mm 3 m/s 670 mmHg 48%
    04:00 +19°C° 0 mm 3 m/s 669 mmHg 46%
    05:00 +20°C° 0 mm 3 m/s 670 mmHg 45%
    06:00 +20°C° 0 mm 3 m/s 671 mmHg 45%
    07:00 +20°C° 0 mm 3 m/s 671 mmHg 44%
    08:00 +24°C° 0 mm 3 m/s 672 mmHg 41%
    09:00 +26°C° 0 mm 3 m/s 672 mmHg 37%
    10:00 +29°C° 0 mm 3 m/s 673 mmHg 34%
    11:00 +30°C° 0 mm 3 m/s 672 mmHg 33%
    12:00 +32°C° 0 mm 2 m/s 672 mmHg 31%
    13:00 +34°C° 0 mm 2 m/s 671 mmHg 30%
    14:00 +32°C° 0 mm 2 m/s 671 mmHg 33%
    15:00 +31°C° 0 mm 1 m/s 670 mmHg 36%
    16:00 +30°C° 0 mm 1 m/s 669 mmHg 39%
    17:00 +28°C° 0 mm 1 m/s 670 mmHg 43%
    18:00 +26°C° 0 mm 1 m/s 670 mmHg 47%
    19:00 +25°C° 0 mm 1 m/s 670 mmHg 51%
    20:00 +24°C° 0 mm 1 m/s 670 mmHg 52%
    21:00 +24°C° 0 mm 1 m/s 671 mmHg 53%
    22:00 +23°C° 0 mm 1 m/s 671 mmHg 54%
    23:00 +23°C° 0 mm 1 m/s 670 mmHg 56%

    28 Mai, Mardi

    Heure Température Précipitation Vent Pression Humidité
    00:00 +22°C° 0 mm 1 m/s 670 mmHg 57%
    01:00 +21°C° 0 mm 1 m/s 669 mmHg 58%
    02:00 +21°C° 0 mm 1 m/s 669 mmHg 59%
    03:00 +20°C° 0 mm 1 m/s 669 mmHg 59%
    04:00 +20°C° 0 mm 1 m/s 669 mmHg 59%
    05:00 +20°C° 0 mm 1 m/s 670 mmHg 57%
    06:00 +20°C° 0 mm 2 m/s 670 mmHg 54%
    07:00 +20°C° 0 mm 2 m/s 671 mmHg 51%
    08:00 +24°C° 0 mm 2 m/s 672 mmHg 45%
    09:00 +26°C° 0 mm 2 m/s 672 mmHg 39%
    10:00 +29°C° 0 mm 3 m/s 673 mmHg 33%
    11:00 +31°C° 0 mm 2 m/s 672 mmHg 31%
    12:00 +32°C° 0 mm 2 m/s 672 mmHg 29%
    13:00 +35°C° 0 mm 2 m/s 671 mmHg 27%
    14:00 +32°C° 0 mm 1 m/s 671 mmHg 29%
    15:00 +31°C° 0 mm 1 m/s 670 mmHg 32%
    16:00 +30°C° 0 mm 1 m/s 670 mmHg 35%
    17:00 +28°C° 0 mm 1 m/s 670 mmHg 39%
    18:00 +26°C° 0 mm 1 m/s 670 mmHg 44%
    19:00 +24°C° 0 mm 1 m/s 670 mmHg 48%
    20:00 +24°C° 0 mm 1 m/s 670 mmHg 49%
    21:00 +24°C° 0 mm 1 m/s 670 mmHg 50%
    22:00 +24°C° 0 mm 1 m/s 671 mmHg 51%
    23:00 +23°C° 0 mm 1 m/s 670 mmHg 53%

    29 Mai, Mercredi

    Heure Température Précipitation Vent Pression Humidité
    00:00 +22°C° 0 mm 1 m/s 670 mmHg 55%
    01:00 +22°C° 0 mm 1 m/s 669 mmHg 57%
    02:00 +21°C° 0 mm 1 m/s 669 mmHg 59%
    03:00 +21°C° 0 mm 1 m/s 669 mmHg 61%
    04:00 +20°C° 0 mm 1 m/s 669 mmHg 63%
    05:00 +20°C° 0 mm 1 m/s 670 mmHg 62%
    06:00 +21°C° 0 mm 1 m/s 670 mmHg 61%
    07:00 +21°C° 0 mm 1 m/s 671 mmHg 60%
    08:00 +24°C° 0 mm 2 m/s 671 mmHg 52%
    09:00 +27°C° 0 mm 2 m/s 672 mmHg 44%
    10:00 +30°C° 0 mm 2 m/s 673 mmHg 36%
    11:00 +31°C° 0 mm 2 m/s 672 mmHg 33%
    12:00 +32°C° 0 mm 2 m/s 671 mmHg 31%
    13:00 +34°C° 0 mm 2 m/s 671 mmHg 28%
    14:00 +32°C° 0 mm 2 m/s 670 mmHg 30%
    15:00 +32°C° 0 mm 2 m/s 670 mmHg 32%
    16:00 +31°C° 0 mm 1 m/s 670 mmHg 34%
    17:00 +29°C° 0 mm 1 m/s 670 mmHg 38%
    18:00 +27°C° 0 mm 1 m/s 670 mmHg 41%
    19:00 +25°C° 0 mm 1 m/s 670 mmHg 45%
    20:00 +24°C° 0 mm 1 m/s 670 mmHg 47%
    21:00 +23°C° 0 mm 1 m/s 670 mmHg 49%
    22:00 +23°C° 0 mm 1 m/s 670 mmHg 51%
    23:00 +22°C° 0 mm 1 m/s 670 mmHg 51%
    Voir plus